Regional Weather Roundup
Issued by NWS

Home | Current Version | Previous Version | Text Only | Print | Product List | Glossary On
Versions: 1 2 3 4 5 6 7 8 9 10 11 12 13 14 15 16 17 18 19 20 21 22 23 24 25 26 27 28 29 30 31 32 33 34 35 36 37 38 39 40 41 42 43 44 45 46 47 48 49 50
000
ASUS45 KBOU 141707
RWRCO

WEATHER ROUNDUP FOR COLORADO
NATIONAL WEATHER SERVICE DENVER/BOULDER CO
1000 AM MST SUN FEB 14 2016

NOTE: "FAIR" INDICATES FEW OR NO CLOUDS BELOW 12000 FEET WITH NO
SIGNIFICANT WEATHER AND/OR OBSTRUCTIONS TO VISIBILITY.

COZ001>005-013-030-031-141800-
...NORTHWEST COLORADO...

CITY           SKY/WX    TMP DP  RH WIND       PRES   REMARKS
CRAIG          CLOUDY    20  15  81 SE6       30.13R WCI  12
HAYDEN         CLOUDY    27  18  69 S5        30.11R WCI  21
MEEKER         PTSUNNY   26  18  71 S3        30.11F
MOUNT WERNER   NOT AVBL
STEAMBOAT SPGS CLOUDY    21  16  81 W3        30.10S
WALDEN         CLOUDY    32  18  55 W10       30.07S WCI  24
$$

COZ006>008-011-141800-
...WEST CENTRAL VALLEYS...

CITY           SKY/WX    TMP DP  RH WIND       PRES   REMARKS
GRAND JUNCTION FAIR      32  28  85 CALM      30.15F
MONTROSE       FAIR      34  24  67 CALM      30.19S
EAGLE          MOSUNNY   27  18  69 CALM      30.14F
RIFLE          FAIR      27  20  75 N3        30.15F
DELTA          CLOUDY    33  28  83 CALM      30.18F
NUCLA          FAIR      32  21  64 CALM      30.23R
$$

COZ017>023-064>068-141800-
...SOUTHWEST COLORADO...

CITY           SKY/WX    TMP DP  RH WIND       PRES   REMARKS
DURANGO        FAIR      31  15  52 E5        30.15S WCI  26
CORTEZ         FAIR      37  21  52 CALM      30.17F
PAGOSA SPRINGS FAIR      35   8  33 CALM      30.14F
TELLURIDE      NOT AVBL
WOLF CREEK PAS FAIR      30  -4  22 SW10      30.22F WCI  21
$$

COZ009-010-012-014-032>034-037-058>063-141800-
...CENTRAL COLORADO...

CITY           SKY/WX    TMP DP  RH WIND       PRES   REMARKS
ASPEN          PTSUNNY   30  16  56 S5        30.12F WCI  25
BUENA VISTA    FAIR      45  11  25 W25G39    30.00F
COPPER MTN     CLOUDY    25  10  54 W24G39    30.08F WCI   9
BERTHOUD PASS  LGT SNOW  14   3  62 NW30G41   30.07R WCI  -7
COTTONWOOD PAS FAIR      37   5  25 SW30G55   30.01F
GUNNISON       PTSUNNY    7 N/A N/A CALM      30.24F
KREMMLING      CLOUDY    25  14  63 CALM      30.10F
LEADVILLE      FAIR      28   7  41 NW15G26   30.09F WCI  16
MONARCH PASS   FAIR      19   9  63 W43G48    30.22F WCI  -2
SALIDA         NOT AVBL
SUNLIGHT       CLOUDY    28  14  54 CALM        N/A
WILKERSON PASS FAIR      27   9  46 W16G36    30.02F WCI  14
$$

COZ069>075-141800-
...SAN LUIS VALLEY/SANGRE DE CRISTO MOUNTAINS...

CITY           SKY/WX    TMP DP  RH WIND       PRES   REMARKS
ALAMOSA        FAIR      36  20  52 S5        30.09F
LA VETA PASS   FAIR      32   9  37 MISG      30.03S
SAGUACHE       FAIR      37  12  35 NW20G29   30.09S
$$

COZ035-036-038>040-141800-
...NORTHERN COLORADO FRONT RANGE...

CITY           SKY/WX    TMP DP  RH WIND       PRES   REMARKS
DENVER INTL AP PTSUNNY   50  18  28 W16       29.88R
DMNS CITY PARK   N/A     54  15  21 N16G25    29.87F
AURORA         PTSUNNY   49  16  27 W5        29.90R
FRONT RANGE AP PTSUNNY   50  19  29 W8        29.89R
ERIE MUNI ARPT FAIR      43  24  47 SE7       29.89R
BOULDER MUN AP FAIR      54  19  26 NE15      29.85F
CENTENNIAL     PTSUNNY   51  16  24 NW6       29.90R
BROOMFIELD     PTSUNNY   54  18  24 NW21G37   29.89R
FORT COLLINS   FAIR      36  25  64 E6        29.90F
LONGMONT       FAIR      47  25  42 E12       29.90S
$$

COZ041-046-047-076>085-087-088-141800-
...PIKES PEAK/PALMER DIVIDE AND SOUTHERN FOOTHILLS...

CITY           SKY/WX    TMP DP  RH WIND       PRES   REMARKS
COLO. SPRINGS  PTSUNNY   34  25  69 SE6       29.96F WCI  29
A. F. ACADEMY  FAIR      32  26  76 SW5       29.95S WCI  28
SCHRIEVER AFB  FAIR      33  24  70 S2G15     29.97F
ELLICOTT       FAIR     N/A N/A N/A W5        29.95F
FALCON         FAIR      33  23  68 SW7       29.97R WCI  26
FORT CARSON    FAIR      34  26  70 NE2       29.94F
LIMON          FAIR      35  28  75 S10       29.94F WCI  27
MONUMENT HILL  FAIR      34  19  55 SW8       29.93F WCI  27
TRINIDAD       FAIR      41  23  48 SW8       29.97F
$$

COZ042>045-048>051-090-091-141800-
...NORTHEAST COLORADO...

CITY           SKY/WX    TMP DP  RH WIND       PRES   REMARKS
GREELEY ARPT   FAIR      37  27  65 CALM      29.91R
AKRON          CLOUDY    39  22  50 S12       29.93R
BURLINGTON     FAIR      39  27  62 SW12      29.95F
WRAY           CLOUDY    42  27  55 SW8       29.95R
STERLING       FAIR      36  28  75 S3        29.91F
HOLYOKE        FAIR      39  32  75 SW7       29.94R
FORT MORGAN    PTSUNNY   37  26  64 E5        29.93S
$$

COZ086-089-092>099-141800-
...SOUTHEAST COLORADO...

CITY           SKY/WX    TMP DP  RH WIND       PRES   REMARKS
PUEBLO         FAIR      39  27  62 E5        29.94F
LA JUNTA       FAIR      42  30  62 S7        29.97F
LAMAR          FAIR      40  29  64 SW7       29.97F
SPRINGFIELD      N/A     44  20  38 S7        30.00F
$$



USA.gov is the U.S. government's official web portal to all federal, state and local government web resources and services.